Flag for Tunisia Weather past 2 weeks in Tunis, Tunisia

Now
91 °F

Sunny.


Feels Like: 103 °F
Forecast: 73 / 99 °F
Wind: 14 mph from East

Location: Tunis-Carthage

Current Time: Sep 19, 2014 at 11:27:07 AM

Latest Report: Sep 19, 2014 at 11:00 AM


Visibility: 10 mi

Pressure: 29.98 "Hg

Humidity: 59%

Dew point: 75 °F

Location of TunisLocation

Historic Weather in Tunis — Graph

°F

Tunis temperature yesterday

Maximum temperature yesterday: 93 °F (at 11:00 AM)
Minimum temperature yesterday: 81 °F (at 12:30 AM)
Average temperature yesterday: 86 °F

Past Weeks' High & Low Weather Summary

 TemperatureHumidityPressure
High99 °F (Sep 15, 2:30 PM)94% (Sep 8, 3:30 AM)30.07 "Hg (Sep 8, 3:30 AM)
Low66 °F (Sep 5, 4:30 AM)28% (Sep 16, 12:00 PM)29.80 "Hg (Sep 18, 3:30 AM)
Average81 °F67%29.93 "Hg
* Reported Sep 4 10:00 AM — Sep 19 10:30 AM, Tunis, Weather by CustomWeather, © 2014

Note: Actual official high and low records may vary slightly from our data, if they occured in-between our weather recording intervals... More about our weather records

Advertising

Tunis weather history for previous 24 hours

 ConditionsComfort  
Time TempWeatherWind HumidityBarometerVisibility
10:30 AM
Sep 19
90 °FPassing clouds.13 mph63%29.98 "HgN/A
10:00 AM90 °FPassing clouds.12 mph63%29.98 "HgN/A
9:30 AM88 °FPassing clouds.12 mph70%29.98 "HgN/A
9:00 AM88 °FPassing clouds.12 mph70%29.98 "HgN/A
8:30 AM82 °FPassing clouds.5 mph84%29.98 "HgN/A
8:00 AM82 °FPassing clouds.6 mph84%29.95 "HgN/A
7:30 AM81 °FPassing clouds.2 mph84%29.95 "HgN/A
7:00 AM79 °FPassing clouds.No wind89%29.95 "HgN/A
6:30 AM81 °FPassing clouds.5 mph84%29.92 "HgN/A
6:00 AM79 °FPassing clouds.2 mph84%29.92 "HgN/A
5:30 AM81 °FPassing clouds.5 mph84%29.89 "HgN/A
5:00 AM81 °FPassing clouds.6 mph84%29.89 "HgN/A
4:30 AM82 °FPassing clouds.5 mph84%29.89 "HgN/A
4:00 AM81 °FPassing clouds.8 mph84%29.89 "HgN/A
3:30 AM82 °FPassing clouds.10 mph84%29.89 "HgN/A
3:00 AM82 °FPassing clouds.12 mph84%29.89 "HgN/A
2:30 AM82 °FPassing clouds.10 mph84%29.89 "HgN/A
2:00 AM82 °FPassing clouds.10 mph84%29.89 "HgN/A
12:30 AM82 °FClear.7 mph84%29.92 "Hg10 mi
12:00 AM84 °FPassing clouds.8 mph79%29.92 "HgN/A
11:30 PM
Sep 18
84 °FWarm.9 mph79%29.92 "HgN/A
11:00 PM84 °FPassing clouds.6 mph79%29.92 "HgN/A
10:30 PM84 °FPassing clouds.8 mph79%29.89 "HgN/A
10:00 PM84 °FPassing clouds.10 mph79%29.89 "HgN/A
9:30 PM84 °FPassing clouds.12 mph79%29.89 "HgN/A
9:00 PM84 °FPassing clouds.13 mph79%29.89 "HgN/A
8:30 PM84 °FPassing clouds.3 mph79%29.89 "HgN/A
8:00 PM86 °FPassing clouds.12 mph75%29.86 "HgN/A
7:30 PM86 °FPassing clouds.10 mph75%29.86 "HgN/A
7:00 PM86 °FPassing clouds.12 mph75%29.83 "HgN/A
6:30 PM86 °FPassing clouds.12 mph75%29.86 "HgN/A
6:00 PM86 °FPassing clouds.14 mph75%29.83 "HgN/A
5:30 PM88 °FPassing clouds.14 mph70%29.86 "HgN/A
5:00 PM91 °FPassing clouds.12 mph59%29.83 "Hg5 mi
4:30 PM91 °FPassing clouds.13 mph59%29.86 "Hg5 mi
4:00 PM93 °FPassing clouds.10 mph53%29.86 "Hg5 mi
3:30 PM90 °FPassing clouds.10 mph63%29.86 "Hg5 mi
3:00 PM91 °FPassing clouds.12 mph56%29.83 "Hg5 mi
2:00 PM91 °FPassing clouds.17 mph56%29.86 "Hg5 mi
1:30 PM91 °FPassing clouds.13 mph52%29.86 "Hg5 mi
1:00 PM93 °FPassing clouds.14 mph49%29.86 "Hg5 mi
12:30 PM91 °FPassing clouds.20 mph56%29.86 "Hg5 mi
12:00 PM91 °FPassing clouds.15 mph49%29.86 "Hg5 mi
11:30 AM91 °FPassing clouds.12 mph49%29.89 "Hg5 mi
11:00 AM93 °FPassing clouds.16 mph47%29.89 "Hg5 mi
Weather by CustomWeather, © 2014

See weather overviewHow to use our weather pages